Flag for New Zealand Weather past 2 weeks in Wanganui, New Zealand

Now
55 °F

Scattered clouds.


Feels Like: 53 °F
Forecast: 48 / 56 °F
Wind: 9 mph from North

Location: Wellington Airport

Current Time: May 23, 2015 at 2:13:46 PM

Latest Report: May 23, 2015 at 1:30 PM


Visibility: N/A

Pressure: 29.59 "Hg

Humidity: 72%

Dew point: 46 °F

Location of WanganuiLocation

Historic Weather in Wanganui — Graph

°F

Wanganui temperature yesterday

Maximum temperature yesterday: 59 °F (at 12:00 AM)
Minimum temperature yesterday: 48 °F (at 6:00 PM)
Average temperature yesterday: 52 °F

Past Weeks' High & Low Weather Summary

 TemperatureHumidityPressure
High66 °F (May 10, 1:00 PM)100% (May 15, 12:30 AM)30.21 "Hg (May 15, 12:30 AM)
Low46 °F (May 17, 8:00 PM)44% (May 9, 7:30 AM)29.24 "Hg (May 12, 1:00 PM)
Average57 °F75%29.77 "Hg
* Reported May 8 1:00 PM — May 23 1:00 PM, Wanganui, Weather by CustomWeather, © 2015

Note: Actual official high and low records may vary slightly from our data, if they occured in-between our weather recording intervals... More about our weather records

Advertising

Wanganui weather history for previous 24 hours

 ConditionsComfort  
Time TempWeatherWind HumidityBarometerVisibility
1:00 PM
Sat, May 23
55 °FPassing clouds.12 mph67%29.62 "HgN/A
12:30 PM57 °FPassing clouds.14 mph63%29.62 "HgN/A
12:00 PM55 °FPassing clouds.15 mph67%29.65 "HgN/A
11:30 AM55 °FScattered clouds.15 mph67%29.65 "HgN/A
11:00 AM55 °FPartly sunny.12 mph72%29.68 "HgN/A
10:30 AM54 °FPassing clouds.14 mph77%29.68 "HgN/A
10:00 AM54 °FPartly sunny.14 mph72%29.68 "HgN/A
9:30 AM52 °FPartly sunny.13 mph77%29.71 "HgN/A
9:00 AM52 °FPartly sunny.13 mph77%29.71 "HgN/A
8:30 AM52 °FScattered clouds.10 mph77%29.71 "HgN/A
8:00 AM52 °FPassing clouds.13 mph72%29.71 "HgN/A
7:30 AM52 °FPassing clouds.14 mph72%29.71 "HgN/A
7:00 AM52 °FScattered clouds.14 mph72%29.71 "HgN/A
6:30 AM54 °FScattered clouds.13 mph67%29.74 "HgN/A
6:00 AM52 °FPassing clouds.14 mph72%29.74 "HgN/A
5:30 AM54 °FPassing clouds.21 mph67%29.74 "HgN/A
5:00 AM54 °FPassing clouds.17 mph63%29.74 "HgN/A
4:30 AM52 °FPassing clouds.16 mph67%29.77 "HgN/A
4:00 AM50 °FPassing clouds.16 mph71%29.77 "HgN/A
3:30 AM50 °FPartly cloudy.15 mph71%29.77 "HgN/A
3:00 AM50 °FPassing clouds.15 mph71%29.80 "HgN/A
2:30 AM50 °FPassing clouds.13 mph71%29.80 "HgN/A
2:00 AM50 °FPassing clouds.14 mph71%29.80 "HgN/A
1:30 AM50 °FPassing clouds.16 mph71%29.83 "HgN/A
1:00 AM50 °FPassing clouds.15 mph71%29.83 "HgN/A
12:30 AM48 °FCool.17 mph76%29.83 "HgN/A
12:00 AM48 °FCool.15 mph76%29.86 "HgN/A
11:30 PM
Fri, May 22
50 °FPassing clouds.14 mph71%29.86 "HgN/A
11:00 PM50 °FPassing clouds.13 mph71%29.86 "HgN/A
10:30 PM50 °FPassing clouds.13 mph71%29.89 "HgN/A
10:00 PM50 °FPassing clouds.14 mph71%29.89 "HgN/A
9:30 PM50 °FPassing clouds.13 mph71%29.89 "HgN/A
9:00 PM50 °FPassing clouds.10 mph71%29.92 "HgN/A
8:30 PM48 °FPassing clouds.7 mph71%29.92 "HgN/A
8:00 PM48 °FPassing clouds.8 mph76%29.92 "HgN/A
7:30 PM50 °FPassing clouds.9 mph71%29.95 "HgN/A
7:00 PM50 °FCool.6 mph67%29.95 "HgN/A
6:30 PM52 °FCool.8 mph62%29.95 "HgN/A
6:00 PM48 °FCool.5 mph66%29.92 "HgN/A
5:30 PM50 °FCool.5 mph67%29.95 "HgN/A
5:00 PM50 °FCool.5 mph58%29.92 "HgN/A
4:30 PM52 °FCool.5 mph54%29.95 "HgN/A
4:00 PM54 °FCool.2 mph54%29.95 "Hg5 mi
3:30 PM54 °FCool.2 mph51%29.95 "HgN/A
3:00 PM54 °FCool.7 mph54%29.95 "HgN/A
2:30 PM54 °FCool.8 mph51%29.98 "HgN/A
2:00 PM54 °FCool.9 mph51%29.98 "HgN/A
Weather by CustomWeather, © 2015

See weather overviewHow to use our weather pages